Temp
77 76 76 76 76 76 77 77 77 77 76 74 75 74 73 70 70 69 68 68 68 67 67 68 68 67 66 66 65 65 65 64 62 65 67 70 71 71 73 72 74 72 71
78 76 77 79 78 77 78 79 78 77 75 73 72 72 72 70 69 68 69 70 67 67 67 66 67 72 65 65 65 64 63 63 63 61 62 66 68 69 70 70 74 79 73
77 77 76 76 77 77 76 74 74 74 72 72 69 68 69 71 71 70 69 69 70 69 69 67 68 67 65 64 64 64 63 66 62 61 61 61 64 66 67 68 68 69 75
75 72 71 70 71 71 70 71 71 72 71 71 69 68 66 71 71 71 69 69 69 70 70 70 68 68 67 66 65 64 63 62 61 60 59 59 60 63 63 62 64 65 67
70 70 68 69 69 70 69 69 70 69 69 68 67 67 67 68 70 68 70 69 69 71 71 70 70 71 71 68 66 63 63 61 59 58 57 57 58 60 60 60 60 61 64
70 68 68 68 69 68 68 68 68 68 69 69 69 68 68 69 69 70 72 69 67 69 69 70 70 72 70 69 69 68 66 61 59 58 56 56 57 58 59 59 59 59 59
68 67 67 67 66 65 65 65 65 65 65 66 68 69 68 69 68 67 69 68 67 69 68 68 68 70 67 66 67 68 69 68 66 61 59 57 58 58 59 57 58 57 57
66 66 66 65 63 63 63 64 66 66 65 64 63 63 65 65 62 64 67 67 65 65 65 67 67 66 64 64 64 63 64 65 66 67 64 64 62 61 59 58 57 56 55
66 65 65 63 63 62 63 64 66 64 62 62 63 62 61 61 61 63 64 60 57 57 58 59 59 59 62 63 64 64 61 63 67 63 65 64 64 63 63 60 58 55 54
66 66 65 63 62 62 61 61 61 65 63 64 62 61 61 61 59 61 61 59 56 56 56 57 59 57 57 57 57 57 56 57 59 62 65 66 66 66 65 63 63 61 57
66 65 65 64 63 62 61 60 59 61 61 61 60 60 60 59 59 58 60 60 58 57 57 56 56 57 56 56 57 57 57 58 59 59 60 62 64 66 66 63 62 62 57
64 63 63 62 64 62 61 60 59 58 58 57 62 59 58 57 58 57 58 59 60 58 57 57 57 56 56 56 57 58 58 60 58 58 58 59 61 61 63 64 63 62 63
62 61 61 60 60 59 58 57 57 58 57 56 55 54 55 56 56 58 58 58 59 56 55 57 56 55 55 56 57 58 59 57 56 57 57 57 59 61 62 62 63 63 63
62 60 59 57 56 56 57 56 56 56 57 56 55 54 54 54 54 54 56 57 59 57 59 57 58 58 58 58 59 59 58 58 57 56 57 58 59 59 59 60 58 59 59
63 61 60 58 55 53 52 52 54 52 52 56 53 52 53 52 52 47 48 51 51 52 53 57 56 57 57 58 58 58 58 58 58 59 58 57 57 57 57 59 58 58 57
62 62 61 59 56 55 54 53 49 47 47 47 48 51 50 48 47 45 44 45 47 48 54 53 53 55 55 55 56 56 54 56 55 57 57 57 56 56 58 55 55 55 54
63 62 61 62 59 57 56 55 54 53 48 45 43 48 49 48 45 44 43 43 47 52 53 52 52 52 52 52 52 51 51 52 53 52 52 52 52 53 52 52 52 51 52
63 61 63 63 61 60 59 57 55 52 54 54 51 46 44 41 41 42 42 49 53 52 51 50 50 50 51 51 51 51 51 51 50 50 50 51 51 51 50 49 49 48 49
65 68 68 63 62 60 59 59 58 56 54 54 53 52 51 47 48 48 46 52 51 51 51 51 51 51 51 52 54 54 51 51 51 51 56 57 57 56 54 55 55 52 52
63 63 62 60 58 57 56 56 54 55 55 54 52 52 52 53 55 54 53 52 52 52 52 52 53 57 56 56 56 55 56 56 57 54 56 53 52 54 54 54 54 53 53
60 61 61 58 57 56 55 54 54 54 53 53 53 54 53 54 53 52 52 52 52 52 52 52 52 53 53 54 54 57 57 57 56 55 55 54 54 52 50 50 50 53 51
59 57 57 57 55 56 54 55 55 54 54 53 54 55 51 52 52 52 53 55 54 54 53 53 57 56 56 54 51 50 48 48 48 48 49 52 53 53 53 53 53 53 53
58 58 57 57 57 56 56 55 56 55 55 54 54 55 54 53 53 56 56 55 54 53 53 53 52 50 49 47 46 46 45 44 45 45 45 45 45 45 46 47 48 48 48
59 59 59 56 56 55 55 55 55 54 56 56 55 55 54 54 56 57 57 53 53 52 52 51 49 48 46 44 43 42 41 40 42 41 41 41 41 43 43 43 44 45 46
58 59 59 57 57 56 56 56 55 56 55 56 56 57 56 54 53 54 53 52 52 52 52 50 47 47 45 44 43 40 38 36 38 37 37 38 39 40 40 40 42 43 43
58 58 56 55 55 55 55 55 55 54 56 56 55 54 54 53 52 52 52 52 51 50 51 49 47 46 45 44 42 40 34 33 36 33 33 34 36 37 38 38 39 39 39
MSLP
1011.39 1011.70 1012.06 1012.13 1012.13 1012.31 1012.58 1012.69 1012.72 1012.46 1012.06 1012.19 1012.33 1012.65 1013.12 1013.68 1013.97 1014.21 1014.05 1014.36 1014.68 1014.74 1014.55 1014.58 1014.57 1014.42 1014.49 1014.53 1014.54 1014.55 1014.69 1014.86 1015.38 1015.07 1014.53 1014.06 1013.97 1013.93 1013.92 1013.96 1013.98 1014.15 1014.26
1010.86 1011.36 1011.50 1011.52 1011.73 1011.94 1012.03 1011.94 1012.21 1012.35 1012.47 1013.73 1014.33 1014.85 1014.40 1013.83 1014.26 1014.38 1014.14 1013.70 1014.08 1014.49 1014.48 1014.49 1014.55 1014.49 1014.55 1014.40 1014.41 1014.67 1014.73 1014.75 1015.14 1015.46 1015.22 1014.84 1014.46 1014.19 1014.19 1014.22 1013.96 1013.69 1013.81
1011.17 1011.63 1012.15 1012.27 1012.43 1012.62 1012.80 1012.79 1012.70 1012.45 1011.88 1011.56 1012.23 1013.12 1011.64 1014.94 1013.69 1013.51 1013.74 1012.97 1012.74 1013.52 1013.83 1014.04 1014.06 1014.24 1014.63 1014.55 1014.43 1014.55 1014.73 1014.72 1015.08 1015.38 1015.41 1015.21 1014.90 1014.63 1014.49 1014.30 1014.13 1013.92 1013.77
1011.62 1012.50 1012.78 1013.05 1013.07 1013.08 1013.45 1013.20 1012.62 1012.09 1011.53 1011.72 1012.21 1012.44 1012.21 1013.08 1013.39 1013.55 1013.45 1012.99 1012.90 1012.88 1013.37 1013.53 1013.64 1013.85 1014.00 1014.38 1014.32 1014.50 1014.62 1014.80 1014.98 1015.33 1015.69 1015.48 1015.14 1014.89 1014.95 1015.10 1014.80 1014.27 1013.92
1012.74 1013.34 1013.66 1013.73 1013.68 1013.60 1013.64 1013.51 1013.00 1012.47 1012.15 1012.11 1012.69 1012.85 1013.30 1013.29 1013.16 1013.28 1013.15 1012.86 1012.84 1012.95 1012.97 1013.00 1012.96 1013.11 1013.30 1013.54 1013.87 1014.14 1014.50 1014.86 1015.13 1015.47 1015.72 1015.70 1015.79 1015.50 1015.37 1015.39 1015.25 1015.03 1014.48
1013.59 1014.06 1014.23 1014.17 1014.02 1013.90 1013.80 1013.79 1013.64 1013.34 1013.00 1012.84 1012.95 1012.97 1012.91 1013.00 1012.78 1012.47 1012.42 1012.46 1012.51 1012.64 1012.57 1012.36 1012.44 1012.55 1012.73 1012.84 1013.08 1013.26 1013.92 1014.51 1014.90 1015.32 1015.85 1016.00 1015.84 1015.85 1015.84 1015.61 1015.45 1015.45 1015.27
1014.17 1014.56 1014.73 1014.79 1014.79 1014.69 1014.56 1014.42 1014.26 1014.16 1013.86 1013.55 1013.27 1013.13 1013.08 1013.02 1012.75 1012.46 1012.29 1012.33 1012.20 1012.08 1011.98 1012.13 1012.24 1012.46 1012.67 1012.89 1013.12 1013.11 1013.27 1014.01 1014.31 1014.66 1015.16 1015.43 1015.45 1015.45 1015.64 1015.74 1015.56 1015.52 1015.40
1014.69 1014.90 1015.01 1015.07 1015.33 1015.49 1015.23 1015.03 1014.87 1014.73 1014.65 1014.55 1014.31 1014.01 1013.61 1013.52 1013.07 1012.52 1012.31 1012.36 1012.49 1012.67 1012.35 1012.00 1012.11 1012.39 1012.80 1012.70 1013.16 1013.39 1013.95 1014.27 1014.40 1014.33 1014.40 1014.57 1014.77 1014.81 1015.08 1015.43 1015.49 1015.41 1015.23
1015.09 1015.24 1015.43 1015.53 1015.57 1015.63 1015.76 1015.76 1015.61 1015.63 1015.61 1015.55 1015.31 1015.01 1014.72 1014.38 1013.74 1013.23 1012.86 1013.10 1013.40 1013.64 1013.24 1012.94 1012.95 1012.80 1012.78 1013.12 1013.66 1013.81 1014.38 1014.41 1014.01 1014.35 1014.56 1014.38 1014.35 1014.24 1014.43 1014.99 1015.28 1015.54 1015.49
1015.47 1015.65 1015.75 1015.88 1016.01 1016.15 1016.28 1016.25 1016.36 1016.17 1016.12 1015.95 1015.85 1015.74 1015.52 1015.08 1014.48 1014.01 1013.79 1013.98 1014.42 1014.64 1014.88 1014.75 1014.26 1013.87 1013.67 1012.87 1014.17 1013.94 1014.84 1015.55 1015.02 1014.93 1014.92 1014.76 1014.20 1013.96 1014.04 1014.44 1014.49 1014.75 1015.28
1015.68 1015.82 1015.97 1016.11 1016.34 1016.55 1016.71 1016.74 1016.71 1016.58 1016.42 1016.46 1016.39 1016.38 1016.28 1016.07 1015.67 1015.14 1014.90 1014.83 1015.01 1015.21 1015.41 1015.44 1015.29 1014.97 1014.98 1014.74 1015.05 1015.57 1016.07 1016.02 1015.25 1015.47 1015.16 1015.09 1014.52 1014.28 1014.42 1014.41 1014.44 1014.65 1014.72
1015.99 1016.25 1016.40 1016.50 1016.58 1016.76 1016.88 1017.17 1017.21 1017.07 1017.04 1017.10 1017.05 1017.03 1016.98 1016.84 1016.50 1016.19 1015.84 1015.64 1015.66 1015.62 1015.85 1015.94 1015.79 1015.54 1015.64 1015.97 1016.19 1016.39 1015.78 1015.79 1015.73 1015.79 1015.45 1015.29 1015.06 1014.92 1014.81 1014.61 1014.33 1014.40 1014.32
1016.32 1016.69 1016.90 1017.00 1017.16 1017.26 1017.44 1017.70 1017.68 1017.63 1017.69 1017.78 1017.73 1017.70 1017.65 1017.40 1017.13 1016.95 1016.74 1016.50 1016.36 1016.30 1016.33 1016.27 1016.24 1016.21 1016.20 1016.16 1016.00 1015.75 1015.58 1015.54 1015.66 1015.59 1015.75 1015.69 1015.47 1015.20 1015.18 1014.24 1014.28 1014.30 1014.17
1016.46 1016.92 1017.27 1017.46 1017.77 1017.81 1017.85 1018.06 1018.15 1018.17 1018.15 1018.17 1018.18 1018.20 1018.08 1017.92 1017.73 1017.59 1017.40 1017.08 1016.92 1016.83 1016.75 1016.62 1016.53 1016.41 1016.28 1016.13 1015.83 1015.58 1015.55 1015.61 1015.63 1015.64 1015.66 1015.64 1015.56 1015.28 1014.69 1014.82 1014.86 1014.62 1014.48
1016.46 1016.97 1017.35 1017.63 1017.97 1018.32 1018.57 1018.76 1018.65 1018.62 1018.55 1018.54 1018.52 1018.48 1018.43 1018.37 1018.38 1018.18 1017.92 1017.58 1017.38 1017.14 1016.73 1016.58 1016.58 1016.49 1016.40 1016.22 1016.09 1016.01 1015.94 1015.87 1015.86 1015.58 1015.51 1015.44 1015.36 1015.39 1015.22 1015.11 1015.07 1014.99 1014.82
1016.58 1016.93 1017.28 1017.70 1018.11 1018.42 1018.69 1018.93 1018.76 1018.58 1018.41 1018.40 1018.50 1018.53 1018.65 1018.58 1018.41 1018.18 1017.92 1017.66 1017.42 1017.17 1017.10 1017.11 1017.05 1016.99 1016.95 1016.80 1016.58 1016.51 1016.29 1016.07 1015.98 1015.88 1015.81 1015.63 1015.65 1015.47 1015.58 1015.31 1015.15 1015.07 1015.18
1016.46 1016.81 1017.02 1017.47 1017.93 1018.26 1018.66 1018.91 1019.11 1018.93 1018.74 1018.65 1018.68 1018.75 1018.90 1018.79 1018.65 1018.28 1018.02 1017.83 1017.64 1017.45 1017.61 1017.55 1017.45 1017.31 1017.18 1017.04 1016.90 1016.79 1016.66 1016.43 1016.16 1016.08 1016.07 1016.06 1015.99 1015.82 1015.74 1015.51 1015.43 1015.43 1015.35
1016.32 1016.57 1016.88 1017.25 1017.54 1017.80 1018.14 1018.64 1018.90 1019.04 1019.24 1019.07 1018.90 1018.97 1018.90 1018.79 1018.58 1018.25 1018.24 1017.91 1018.08 1017.78 1017.86 1017.78 1017.70 1017.57 1017.50 1017.35 1017.15 1016.94 1016.65 1016.43 1016.33 1016.17 1016.16 1016.04 1015.89 1015.72 1015.64 1015.67 1015.57 1015.51 1015.46
1016.25 1016.40 1016.59 1017.03 1017.26 1017.59 1017.90 1018.38 1018.80 1019.05 1019.17 1019.19 1019.11 1018.90 1018.84 1018.77 1018.53 1018.36 1018.33 1018.54 1018.45 1018.25 1018.05 1017.86 1017.74 1017.60 1017.38 1017.22 1016.96 1016.73 1016.66 1016.53 1016.32 1016.11 1015.79 1015.71 1015.65 1015.67 1015.68 1015.56 1015.35 1015.25 1015.20
1016.29 1016.47 1016.86 1017.32 1017.53 1017.76 1017.94 1018.21 1018.43 1018.73 1019.05 1019.17 1019.19 1019.09 1018.71 1018.48 1018.62 1018.60 1018.40 1018.36 1018.37 1018.18 1017.94 1017.80 1017.50 1017.25 1017.08 1016.91 1016.66 1016.45 1016.27 1016.10 1015.93 1015.93 1015.82 1015.66 1015.51 1015.50 1015.65 1015.53 1015.39 1015.24 1015.06
1016.74 1016.70 1016.92 1017.42 1017.72 1017.97 1018.16 1018.37 1018.54 1018.75 1019.04 1019.08 1018.99 1018.51 1018.19 1018.61 1018.88 1018.99 1019.02 1018.70 1018.54 1018.24 1017.97 1017.85 1017.70 1017.53 1017.25 1016.98 1016.79 1016.50 1016.31 1016.11 1016.07 1016.08 1015.96 1015.83 1015.45 1015.32 1015.07 1014.97 1014.93 1014.82 1014.74
1016.78 1017.22 1017.35 1017.74 1018.17 1018.31 1018.39 1018.42 1018.65 1018.82 1018.97 1019.03 1018.86 1018.50 1018.63 1018.71 1018.71 1018.66 1018.45 1018.19 1018.15 1018.07 1017.97 1017.83 1017.59 1017.34 1017.21 1017.17 1017.14 1017.07 1017.11 1017.11 1016.89 1016.62 1016.47 1016.23 1015.90 1015.46 1015.17 1014.96 1014.81 1014.59 1014.23
1017.02 1017.30 1017.61 1017.86 1018.05 1018.26 1018.43 1018.53 1018.58 1018.64 1018.70 1018.75 1018.78 1018.97 1018.80 1018.83 1018.98 1018.91 1018.88 1018.67 1018.49 1018.32 1018.04 1017.93 1017.86 1017.77 1017.68 1017.65 1017.59 1017.63 1017.63 1017.51 1017.27 1017.05 1016.87 1016.50 1016.08 1015.72 1015.37 1015.09 1014.73 1014.40 1014.08
1016.85 1017.18 1017.57 1018.07 1018.13 1018.25 1018.45 1018.55 1018.66 1018.71 1018.65 1018.76 1018.92 1018.86 1018.98 1018.94 1018.92 1018.88 1018.84 1018.71 1018.51 1018.18 1017.97 1017.99 1017.92 1018.04 1018.19 1018.12 1017.99 1017.89 1017.79 1017.62 1017.31 1017.11 1016.88 1016.56 1016.07 1015.61 1015.26 1014.94 1014.65 1014.28 1013.93
1016.89 1017.39 1017.79 1017.96 1018.12 1018.27 1018.44 1018.60 1018.70 1018.74 1018.75 1018.78 1018.96 1018.99 1018.98 1018.87 1018.85 1018.79 1018.65 1018.55 1018.45 1018.29 1018.04 1018.03 1018.15 1018.18 1018.18 1018.08 1017.96 1017.87 1017.79 1017.65 1017.43 1017.08 1016.71 1016.37 1016.00 1015.59 1015.31 1015.02 1014.64 1014.25 1013.86
1017.06 1017.45 1017.85 1018.12 1018.24 1018.29 1018.36 1018.51 1018.62 1018.71 1018.72 1018.69 1018.73 1018.76 1018.78 1018.83 1018.83 1018.75 1018.59 1018.53 1018.55 1018.44 1018.20 1018.19 1018.19 1018.21 1018.14 1017.99 1017.81 1017.62 1017.58 1017.45 1017.13 1016.71 1016.43 1016.12 1015.71 1015.30 1015.02 1014.80 1014.53 1014.31 1013.91
Wind_Speed
9 8 8 8 8 7 7 7 7 7 8 8 7 7 7 5 5 5 5 4 2 4 3 3 4 3 1 2 1 2 2 2 3 3 2 2 0 2 2 4 5 5 4
10 7 9 8 7 7 9 9 7 8 5 13 15 15 9 3 3 5 6 4 5 5 5 3 5 3 2 3 3 3 2 2 3 2 2 3 2 2 3 3 4 4 5
2 1 5 6 5 6 6 6 6 5 9 7 8 11 2 12 6 5 7 6 6 6 7 6 7 5 4 2 2 4 3 2 2 2 2 1 2 1 2 2 2 3 3
8 11 9 8 8 8 7 5 4 2 3 7 10 10 12 8 6 5 6 6 5 5 6 6 6 7 7 6 4 3 3 4 2 2 1 2 1 1 2 2 3 2 4
12 12 8 6 6 5 5 5 6 6 1 3 6 5 2 4 4 6 8 7 5 8 7 6 7 8 11 9 5 5 5 3 2 2 1 2 3 3 2 1 1 2 2
11 9 6 7 7 7 7 7 6 5 3 2 2 1 2 4 11 16 11 7 6 8 7 7 6 10 10 13 11 12 7 5 4 3 2 1 1 1 2 1 0 2 3
9 8 7 7 8 7 6 7 8 6 5 6 5 5 5 6 10 9 10 5 6 7 7 6 5 5 6 6 7 9 9 5 4 6 5 5 4 5 2 1 2 1 3
9 9 9 9 9 7 9 10 10 11 12 11 11 11 9 8 16 10 6 3 5 7 6 5 4 2 4 8 7 6 4 3 4 3 5 5 4 3 4 3 3 3 3
8 9 8 8 9 10 12 10 10 9 10 9 9 10 10 9 15 9 10 8 10 11 11 11 9 9 12 10 4 10 8 10 9 4 1 5 5 7 6 3 2 1 3
6 6 6 6 8 9 7 8 7 11 10 7 8 9 12 9 14 12 9 7 10 8 9 12 22 18 25 22 10 10 9 5 7 7 4 4 6 6 8 6 2 3 2
6 6 6 6 7 6 6 5 4 6 7 8 8 8 9 9 11 13 11 8 6 6 5 4 6 16 17 16 11 5 3 3 5 3 4 4 4 5 6 2 3 1 1
6 6 6 7 6 4 7 5 5 6 6 6 8 7 5 6 10 11 12 11 7 6 5 4 4 9 11 9 7 8 5 4 2 2 1 3 4 4 4 3 4 2 3
7 6 6 6 6 6 6 5 4 5 4 4 4 4 3 4 4 10 10 8 8 4 2 2 5 4 4 3 1 2 3 2 2 2 3 2 1 3 5 3 4 5 6
7 6 6 6 6 5 4 4 4 4 4 4 4 4 4 4 4 4 4 4 5 4 2 1 3 1 2 2 3 5 3 2 1 1 2 2 3 2 4 3 3 3 2
6 6 5 5 5 5 4 3 3 2 2 3 2 2 3 4 4 5 4 5 4 3 3 3 4 3 4 4 4 4 4 2 2 2 3 3 2 3 2 1 1 1 1
4 4 4 5 4 4 4 4 7 5 6 6 3 2 1 1 4 6 8 9 10 11 4 3 3 4 3 3 4 3 3 4 2 2 2 2 2 2 3 2 2 2 1
6 4 4 6 4 5 3 4 4 4 3 4 6 6 5 1 3 5 7 7 5 5 3 3 2 3 2 3 3 3 3 2 3 3 2 3 3 3 3 3 3 2 3
5 8 5 4 5 4 5 4 4 4 2 2 1 1 2 3 4 5 8 3 4 4 2 2 1 1 2 2 2 2 3 3 3 3 2 2 3 1 1 2 1 1 0
5 4 4 3 2 3 2 3 4 4 3 1 3 4 3 6 7 7 1 2 1 0 1 0 1 1 2 3 3 3 3 3 3 3 1 2 2 1 0 2 2 2 2
4 9 6 5 4 5 4 4 4 5 5 2 1 2 2 3 2 2 1 1 2 3 2 3 4 4 4 4 4 4 4 3 2 2 3 3 3 2 3 4 4 3 3
4 5 8 5 5 4 4 5 4 4 4 3 3 4 5 1 3 2 3 3 3 2 1 1 2 3 4 4 4 4 4 3 2 4 3 4 3 3 5 5 5 5 5
5 5 4 5 4 4 3 4 5 4 4 3 4 3 9 2 3 2 4 5 3 3 2 2 3 3 3 4 4 5 5 5 5 5 5 5 4 4 4 4 5 6 7
5 5 5 3 4 4 3 2 3 3 3 2 2 3 2 4 4 3 3 3 3 3 3 4 3 3 4 4 4 4 4 3 3 3 4 5 5 5 5 6 6 7 7
6 6 6 4 3 4 3 2 0 1 2 5 3 5 4 4 4 4 2 2 2 2 2 3 3 5 5 4 3 3 3 4 4 4 5 5 5 6 6 7 7 8 8
6 5 4 4 3 4 4 3 1 1 3 5 4 3 3 3 3 2 2 1 1 3 4 4 3 6 5 4 2 2 3 5 5 6 4 5 6 7 6 5 6 7 8
5 6 5 4 4 3 3 2 3 1 4 4 4 3 3 4 3 2 0 2 2 3 4 3 5 5 4 2 2 5 5 7 8 8 5 4 4 4 4 4 5 5 7
Wind_Direction
193 197 203 212 215 217 223 233 233 233 228 202 206 198 189 202 220 214 175 202 240 244 237 226 225 182 194 69 86 105 91 106 128 305 322 352 176 203 244 218 217 214 220
201 200 215 222 220 220 226 236 262 250 284 29 24 355 319 233 270 262 237 200 204 247 256 245 248 218 198 162 124 103 107 108 128 187 321 330 289 288 227 218 234 221 211
256 304 6 339 329 345 34 24 349 269 147 128 95 295 136 268 213 231 248 220 190 223 231 217 225 198 198 187 153 133 129 103 96 131 229 286 275 318 300 325 314 288 257
69 66 55 44 60 59 52 34 350 288 151 132 142 181 206 234 211 247 240 242 253 237 232 224 221 199 189 190 154 158 144 113 113 114 157 264 231 317 55 38 332 347 329
67 69 64 54 62 59 52 37 18 16 55 218 175 303 61 273 277 250 231 240 230 233 230 221 220 204 193 180 159 158 139 131 118 85 69 44 354 20 74 313 332 307 289
75 76 66 60 54 46 36 41 41 28 41 32 317 27 302 288 278 282 264 243 230 235 228 230 224 206 195 180 164 151 158 151 148 139 151 173 226 266 313 319 339 41 312
71 67 72 70 58 36 29 33 32 22 9 359 338 309 282 265 271 271 261 242 240 246 237 234 197 201 185 167 171 148 141 152 152 158 159 196 187 203 196 260 248 246 245
70 71 62 58 61 56 48 44 48 39 37 31 22 12 5 11 348 341 358 352 22 18 339 259 213 115 213 157 149 131 100 20 277 196 177 181 215 202 185 193 212 251 293
68 70 69 68 62 57 64 57 62 55 53 46 39 32 26 14 4 24 74 79 70 52 52 53 65 65 72 62 66 96 63 30 12 216 247 325 284 277 207 152 239 65 319
74 88 84 80 72 65 60 58 59 70 70 63 51 40 34 31 12 31 56 78 75 70 57 66 78 69 57 63 64 82 69 4 27 12 355 329 5 330 322 222 189 176 195
81 81 76 74 82 77 69 58 54 70 69 56 53 43 40 27 29 35 63 84 91 89 85 73 66 76 77 77 81 69 38 322 45 4 344 325 12 21 30 354 260 222 175
90 82 71 67 69 81 86 68 51 50 53 43 54 46 26 19 29 33 50 64 71 85 89 101 112 119 132 151 159 176 153 155 171 186 57 350 6 8 346 7 41 17 245
96 101 87 72 63 61 78 77 66 57 61 48 54 53 29 11 22 27 37 53 68 73 91 128 133 121 148 185 86 81 65 44 24 19 339 293 278 304 275 44 16 10 347
118 112 102 93 77 57 61 61 72 62 65 57 43 35 12 6 13 7 2 9 19 35 28 238 220 227 340 313 345 7 5 353 351 304 281 276 280 298 14 6 337 340 353
136 134 122 106 100 88 65 33 46 49 28 80 70 71 40 17 354 343 341 359 1 352 329 28 30 22 21 21 23 15 6 4 322 357 14 2 349 338 305 281 260 273 357
153 166 161 139 128 116 108 86 45 45 35 45 42 127 72 55 354 5 4 358 356 358 41 34 29 38 41 15 26 1 4 10 351 338 317 322 305 322 308 333 1 16 319
132 132 130 151 154 156 148 132 120 352 35 50 41 39 21 120 0 351 353 351 10 4 44 8 18 12 353 359 2 358 340 322 316 331 319 325 323 300 328 336 347 357 333
146 154 140 148 163 181 175 162 150 145 135 307 57 82 325 296 293 324 353 21 43 26 82 88 48 1 320 321 309 289 303 325 330 324 338 310 292 241 357 320 301 204 331
101 117 132 141 161 140 163 146 160 160 157 213 345 352 294 286 271 295 66 124 225 264 245 257 248 269 260 264 266 253 256 291 275 290 228 127 69 45 260 204 200 213 208
115 106 98 100 91 93 72 108 114 140 159 175 246 253 286 23 25 308 289 281 222 227 249 257 286 309 319 295 285 275 266 246 190 172 196 229 213 214 248 261 269 267 253
112 110 120 101 87 98 111 107 116 122 152 187 233 243 224 104 336 332 337 330 346 324 319 12 6 357 350 350 344 331 314 319 323 312 297 292 269 225 229 227 240 245 246
127 124 103 99 105 98 100 108 113 131 178 209 254 323 14 45 23 77 110 110 107 93 81 61 27 10 4 22 13 27 40 29 13 7 358 345 325 314 302 291 285 276 273
125 127 103 81 113 130 105 54 101 121 128 154 1 59 49 73 97 85 58 45 45 27 14 27 6 43 68 68 58 62 61 25 344 337 319 309 308 305 301 292 291 292 287
127 117 121 128 115 100 104 133 173 0 38 74 123 117 113 119 118 112 87 42 34 11 360 51 81 91 81 72 63 44 16 352 341 333 324 301 298 304 302 299 296 294 289
131 135 124 124 115 117 110 109 158 19 58 131 128 105 111 123 129 145 123 83 355 7 4 35 122 119 102 89 80 43 338 320 309 293 290 292 286 291 289 292 300 307 304
113 110 106 112 116 126 111 66 21 32 150 150 153 167 154 154 164 167 147 36 17 14 12 38 151 138 138 209 240 235 268 287 303 299 298 282 276 280 288 291 306 313 310